Time,TemperatureF,DewpointF,PressureIn,WindDirection,WindDirectionDegrees,WindSpeedMPH,WindSpeedGustMPH,Humidity,HourlyPrecipIn,Conditions,Clouds,dailyrainin,SoftwareType,DateUTC
2013-01-02 00:00:00,26.6,17.5,29.74,NW,317,0.0,0.0,68,0.00,,,0.03,Wunderground v.1.15,2013-01-02 05:00:00,
2013-01-02 00:02:00,26.6,17.5,29.74,NW,317,0.0,0.0,68,0.00,,,0.00,Wunderground v.1.15,2013-01-02 05:02:00,
2013-01-02 00:03:00,26.5,17.4,29.74,NW,317,0.0,0.0,68,0.00,,,0.00,Wunderground v.1.15,2013-01-02 05:03:00,
2013-01-02 00:07:00,26.5,17.4,29.74,WNW,296,0.0,1.0,68,0.00,,,0.00,Wunderground v.1.15,2013-01-02 05:07:00,
2013-01-02 00:13:00,26.4,16.9,29.74,WNW,298,0.0,0.0,67,0.00,,,0.00,Wunderground v.1.15,2013-01-02 05:13:00,
2013-01-02 00:18:00,26.3,17.2,29.74,WNW,298,0.0,0.0,68,0.00,,,0.00,Wunderground v.1.15,2013-01-02 05:18:00,
2013-01-02 00:24:00,26.2,17.1,29.74,WNW,298,0.0,0.0,68,0.00,,,0.00,Wunderground v.1.15,2013-01-02 05:24:00,
2013-01-02 00:30:00,26.1,17.0,29.74,WNW,298,0.0,0.0,68,0.00,,,0.00,Wunderground v.1.15,2013-01-02 05:30:00,
2013-01-02 00:35:00,26.1,17.0,29.74,WNW,298,0.0,0.0,68,0.00,,,0.00,Wunderground v.1.15,2013-01-02 05:35:00,
2013-01-02 00:41:00,26.0,16.5,29.74,WNW,298,0.0,0.0,67,0.00,,,0.00,Wunderground v.1.15,2013-01-02 05:41:00,
2013-01-02 00:47:00,26.0,16.5,29.74,WNW,298,0.0,0.0,67,0.00,,,0.00,Wunderground v.1.15,2013-01-02 05:47:00,
2013-01-02 00:52:00,26.0,16.2,29.74,WNW,298,0.0,0.0,66,0.00,,,0.00,Wunderground v.1.15,2013-01-02 05:52:00,
2013-01-02 00:57:00,25.9,16.4,29.74,WNW,298,0.0,0.0,67,0.00,,,0.00,Wunderground v.1.15,2013-01-02 05:57:00,
2013-01-02 01:03:00,25.8,16.7,29.74,WNW,298,0.0,0.0,68,0.00,,,0.00,Wunderground v.1.15,2013-01-02 06:03:00,
2013-01-02 01:09:00,25.7,16.6,29.74,WNW,300,0.0,0.0,68,0.00,,,0.00,Wunderground v.1.15,2013-01-02 06:09:00,
2013-01-02 01:15:00,25.7,16.3,29.74,ESE,102,0.0,1.0,67,0.00,,,0.00,Wunderground v.1.15,2013-01-02 06:15:00,
2013-01-02 01:20:00,25.7,16.3,29.74,ESE,113,0.0,0.0,67,0.00,,,0.00,Wunderground v.1.15,2013-01-02 06:20:00,
2013-01-02 01:26:00,25.8,16.3,29.74,SW,221,0.0,1.0,67,0.00,,,0.00,Wunderground v.1.15,2013-01-02 06:26:00,
2013-01-02 01:32:00,25.7,16.3,29.74,SW,222,0.0,0.0,67,0.00,,,0.00,Wunderground v.1.15,2013-01-02 06:32:00,
2013-01-02 01:37:00,25.7,16.3,29.74,SW,219,0.0,1.0,67,0.00,,,0.00,Wunderground v.1.15,2013-01-02 06:37:00,
2013-01-02 01:43:00,25.7,16.3,29.74,NNW,327,0.0,2.0,67,0.00,,,0.00,Wunderground v.1.15,2013-01-02 06:43:00,
2013-01-02 01:48:00,25.6,16.2,29.74,West,267,0.0,2.0,67,0.00,,,0.00,Wunderground v.1.15,2013-01-02 06:48:00,
2013-01-02 01:54:00,25.6,16.2,29.74,West,268,0.0,0.0,67,0.00,,,0.00,Wunderground v.1.15,2013-01-02 06:54:00,
2013-01-02 02:00:00,25.6,16.2,29.74,NW,312,0.0,0.0,67,0.00,,,0.00,Wunderground v.1.15,2013-01-02 07:00:00,
2013-01-02 02:06:00,25.5,16.1,29.74,WSW,244,1.0,1.0,67,0.00,,,0.00,Wunderground v.1.15,2013-01-02 07:06:00,
2013-01-02 02:12:00,25.4,16.0,29.74,WSW,244,0.0,0.0,67,0.00,,,0.00,Wunderground v.1.15,2013-01-02 07:12:00,
2013-01-02 02:17:00,25.4,16.0,29.74,WSW,249,0.0,0.0,67,0.00,,,0.00,Wunderground v.1.15,2013-01-02 07:17:00,
2013-01-02 02:23:00,25.3,15.5,29.74,WNW,295,0.0,2.0,66,0.00,,,0.00,Wunderground v.1.15,2013-01-02 07:23:00,
2013-01-02 02:29:00,25.3,15.9,29.74,WNW,294,0.0,2.0,67,0.00,,,0.00,Wunderground v.1.15,2013-01-02 07:29:00,
2013-01-02 02:34:00,25.2,15.8,29.74,WNW,292,0.0,0.0,67,0.00,,,0.00,Wunderground v.1.15,2013-01-02 07:34:00,
2013-01-02 02:40:00,25.2,15.8,29.74,WNW,292,0.0,0.0,67,0.00,,,0.00,Wunderground v.1.15,2013-01-02 07:40:00,
2013-01-02 02:46:00,25.1,15.7,29.74,WNW,299,0.0,1.0,67,0.00,,,0.00,Wunderground v.1.15,2013-01-02 07:46:00,
2013-01-02 02:51:00,25.1,15.7,29.74,WNW,299,0.0,0.0,67,0.00,,,0.00,Wunderground v.1.15,2013-01-02 07:51:00,
2013-01-02 02:56:00,25.0,15.6,29.74,WNW,303,0.0,0.0,67,0.00,,,0.00,Wunderground v.1.15,2013-01-02 07:56:00,
2013-01-02 03:01:00,24.9,15.8,29.74,WNW,303,0.0,0.0,68,0.00,,,0.00,Wunderground v.1.15,2013-01-02 08:01:00,
2013-01-02 03:07:00,24.9,15.5,29.74,WNW,303,0.0,0.0,67,0.00,,,0.00,Wunderground v.1.15,2013-01-02 08:07:00,
2013-01-02 03:12:00,24.8,15.7,29.74,WNW,303,0.0,0.0,68,0.00,,,0.00,Wunderground v.1.15,2013-01-02 08:12:00,
2013-01-02 03:18:00,24.8,15.4,29.74,WNW,284,0.0,2.0,67,0.00,,,0.00,Wunderground v.1.15,2013-01-02 08:18:00,
2013-01-02 03:24:00,24.7,15.3,29.74,WNW,284,0.0,0.0,67,0.00,,,0.00,Wunderground v.1.15,2013-01-02 08:24:00,
2013-01-02 03:29:00,24.7,15.6,29.74,West,271,0.0,1.0,68,0.00,,,0.00,Wunderground v.1.15,2013-01-02 08:29:00,
2013-01-02 03:35:00,24.6,15.5,29.74,West,271,0.0,0.0,68,0.00,,,0.00,Wunderground v.1.15,2013-01-02 08:35:00,
2013-01-02 03:40:00,24.5,15.4,29.74,West,271,0.0,0.0,68,0.00,,,0.00,Wunderground v.1.15,2013-01-02 08:40:00,
2013-01-02 03:46:00,24.4,15.3,29.74,West,272,0.0,0.0,68,0.00,,,0.00,Wunderground v.1.15,2013-01-02 08:46:00,
2013-01-02 03:51:00,24.4,15.0,29.74,SW,222,0.0,0.0,67,0.00,,,0.00,Wunderground v.1.15,2013-01-02 08:51:00,
2013-01-02 03:57:00,24.3,15.3,29.74,SW,222,0.0,0.0,68,0.00,,,0.00,Wunderground v.1.15,2013-01-02 08:57:00,
2013-01-02 04:03:00,24.2,15.2,29.74,SW,222,0.0,0.0,68,0.00,,,0.00,Wunderground v.1.15,2013-01-02 09:03:00,
2013-01-02 04:09:00,24.1,15.1,29.74,SW,222,0.0,0.0,68,0.00,,,0.00,Wunderground v.1.15,2013-01-02 09:09:00,
2013-01-02 04:15:00,24.0,15.0,29.74,SW,222,0.0,0.0,68,0.00,,,0.00,Wunderground v.1.15,2013-01-02 09:15:00,
2013-01-02 04:20:00,23.9,14.9,29.74,SW,222,0.0,0.0,68,0.00,,,0.00,Wunderground v.1.15,2013-01-02 09:20:00,
2013-01-02 04:26:00,23.9,15.2,29.74,SW,222,0.0,0.0,69,0.00,,,0.00,Wunderground v.1.15,2013-01-02 09:26:00,
2013-01-02 04:32:00,23.8,15.1,29.74,SW,222,0.0,0.0,69,0.00,,,0.00,Wunderground v.1.15,2013-01-02 09:32:00,
2013-01-02 04:37:00,23.8,15.4,29.74,SW,222,0.0,0.0,70,0.00,,,0.00,Wunderground v.1.15,2013-01-02 09:37:00,
2013-01-02 04:43:00,23.6,15.2,29.74,SW,222,0.0,0.0,70,0.00,,,0.00,Wunderground v.1.15,2013-01-02 09:43:00,
2013-01-02 04:48:00,23.5,15.1,29.74,SW,222,0.0,0.0,70,0.00,,,0.00,Wunderground v.1.15,2013-01-02 09:48:00,
2013-01-02 04:54:00,23.4,15.1,29.74,SW,222,0.0,0.0,70,0.00,,,0.00,Wunderground v.1.15,2013-01-02 09:54:00,
2013-01-02 05:00:00,23.3,15.0,29.74,SW,222,0.0,0.0,70,0.00,,,0.00,Wunderground v.1.15,2013-01-02 10:00:00,
2013-01-02 05:06:00,23.2,14.9,29.74,SW,222,0.0,0.0,70,0.00,,,0.00,Wunderground v.1.15,2013-01-02 10:06:00,
2013-01-02 05:12:00,23.2,14.9,29.74,SW,222,0.0,0.0,70,0.00,,,0.00,Wunderground v.1.15,2013-01-02 10:12:00,
2013-01-02 05:18:00,23.1,14.8,29.74,SW,222,0.0,0.0,70,0.00,,,0.00,Wunderground v.1.15,2013-01-02 10:18:00,
2013-01-02 05:24:00,23.1,14.4,29.74,SW,222,0.0,0.0,69,0.00,,,0.00,Wunderground v.1.15,2013-01-02 10:24:00,
2013-01-02 05:30:00,22.9,14.2,29.74,SW,222,0.0,0.0,69,0.00,,,0.00,Wunderground v.1.15,2013-01-02 10:30:00,
2013-01-02 05:35:00,22.9,14.2,29.74,SW,222,0.0,0.0,69,0.00,,,0.00,Wunderground v.1.15,2013-01-02 10:35:00,
2013-01-02 05:41:00,22.8,14.1,29.74,SW,222,0.0,0.0,69,0.00,,,0.00,Wunderground v.1.15,2013-01-02 10:41:00,
2013-01-02 05:47:00,22.7,14.4,29.74,SW,222,0.0,0.0,70,0.00,,,0.00,Wunderground v.1.15,2013-01-02 10:47:00,
2013-01-02 05:52:00,22.7,14.4,29.74,SW,222,0.0,0.0,70,0.00,,,0.00,Wunderground v.1.15,2013-01-02 10:52:00,
2013-01-02 05:58:00,22.5,14.5,29.74,SW,222,0.0,0.0,71,0.00,,,0.00,Wunderground v.1.15,2013-01-02 10:58:00,
2013-01-02 06:03:00,22.4,14.4,29.74,SW,222,0.0,0.0,71,0.00,,,0.00,Wunderground v.1.15,2013-01-02 11:03:00,
2013-01-02 06:09:00,22.2,14.2,29.74,SW,222,0.0,0.0,71,0.00,,,0.00,Wunderground v.1.15,2013-01-02 11:09:00,
2013-01-02 06:15:00,22.1,14.4,29.74,SW,222,0.0,0.0,72,0.00,,,0.00,Wunderground v.1.15,2013-01-02 11:15:00,
2013-01-02 06:20:00,21.9,14.3,29.74,SW,222,0.0,0.0,72,0.00,,,0.00,Wunderground v.1.15,2013-01-02 11:20:00,
2013-01-02 06:26:00,21.7,14.4,29.74,SW,222,0.0,0.0,73,0.00,,,0.00,Wunderground v.1.15,2013-01-02 11:26:00,
2013-01-02 06:32:00,21.5,14.8,29.74,SW,222,0.0,0.0,75,0.00,,,0.00,Wunderground v.1.15,2013-01-02 11:32:00,
2013-01-02 06:37:00,21.4,14.7,29.74,SW,222,0.0,0.0,75,0.00,,,0.00,Wunderground v.1.15,2013-01-02 11:37:00,
2013-01-02 06:43:00,21.3,14.6,29.74,SW,222,0.0,0.0,75,0.00,,,0.00,Wunderground v.1.15,2013-01-02 11:43:00,
2013-01-02 06:48:00,21.2,14.5,29.74,SW,222,0.0,0.0,75,0.00,,,0.00,Wunderground v.1.15,2013-01-02 11:48:00,
2013-01-02 06:54:00,21.1,14.4,29.74,SW,222,0.0,0.0,75,0.00,,,0.00,Wunderground v.1.15,2013-01-02 11:54:00,
2013-01-02 07:00:00,20.9,14.5,29.74,SW,222,0.0,0.0,76,0.00,,,0.00,Wunderground v.1.15,2013-01-02 12:00:00,
2013-01-02 07:06:00,20.8,14.4,29.74,SW,222,0.0,0.0,76,0.00,,,0.00,Wunderground v.1.15,2013-01-02 12:06:00,
2013-01-02 07:12:00,20.6,14.5,29.74,SW,222,0.0,0.0,77,0.00,,,0.00,Wunderground v.1.15,2013-01-02 12:12:00,
2013-01-02 07:18:00,20.5,14.7,29.74,SW,222,0.0,0.0,78,0.00,,,0.00,Wunderground v.1.15,2013-01-02 12:18:00,
2013-01-02 07:24:00,20.4,14.6,29.74,SW,222,0.0,0.0,78,0.00,,,0.00,Wunderground v.1.15,2013-01-02 12:24:00,
2013-01-02 07:30:00,20.3,14.5,29.74,SW,222,0.0,0.0,78,0.00,,,0.00,Wunderground v.1.15,2013-01-02 12:30:00,
2013-01-02 07:35:00,20.3,14.8,29.74,SW,222,0.0,0.0,79,0.00,,,0.00,Wunderground v.1.15,2013-01-02 12:35:00,
2013-01-02 07:41:00,20.2,14.7,29.74,SW,222,0.0,0.0,79,0.00,,,0.00,Wunderground v.1.15,2013-01-02 12:41:00,
2013-01-02 07:47:00,20.2,14.7,29.74,SW,222,0.0,0.0,79,0.00,,,0.00,Wunderground v.1.15,2013-01-02 12:47:00,
2013-01-02 07:52:00,20.2,14.7,29.74,SW,222,0.0,0.0,79,0.00,,,0.00,Wunderground v.1.15,2013-01-02 12:52:00,
2013-01-02 07:57:00,20.3,14.8,29.74,N/A,-737280,0.0,-999.0,79,0.00,,,0.00,Wunderground v.1.15,2013-01-02 12:57:00,
2013-01-02 07:58:00,20.4,14.9,29.74,SW,222,0.0,0.0,79,0.00,,,0.00,Wunderground v.1.15,2013-01-02 12:58:00,
2013-01-02 08:02:00,20.3,14.8,29.74,N/A,-737280,0.0,-999.0,79,0.00,,,0.00,Wunderground v.1.15,2013-01-02 13:02:00,
2013-01-02 08:07:00,20.3,14.8,29.74,N/A,-737280,0.0,-999.0,79,0.00,,,0.00,Wunderground v.1.15,2013-01-02 13:07:00,
2013-01-02 08:12:00,20.3,14.8,29.74,N/A,-737280,0.0,-999.0,79,0.00,,,0.00,Wunderground v.1.15,2013-01-02 13:12:00,
2013-01-02 08:17:00,21.2,14.2,29.74,SW,225,0.0,-999.0,74,0.00,,,0.00,Wunderground v.1.15,2013-01-02 13:17:00,
2013-01-02 08:22:00,21.2,14.2,29.74,SW,225,0.0,-999.0,74,0.00,,,0.00,Wunderground v.1.15,2013-01-02 13:22:00,
2013-01-02 08:27:00,21.2,14.2,29.74,SW,225,0.0,-999.0,74,0.00,,,0.00,Wunderground v.1.15,2013-01-02 13:27:00,
2013-01-02 08:32:00,21.2,14.2,29.74,SW,225,0.0,-999.0,74,0.00,,,0.00,Wunderground v.1.15,2013-01-02 13:32:00,
2013-01-02 08:37:00,21.2,14.2,29.74,SW,225,0.0,-999.0,74,0.00,,,0.00,Wunderground v.1.15,2013-01-02 13:37:00,
2013-01-02 08:42:00,21.2,14.2,29.74,SW,225,0.0,-999.0,74,0.00,,,0.00,Wunderground v.1.15,2013-01-02 13:42:00,
2013-01-02 08:47:00,23.2,15.2,29.74,SW,225,0.0,-999.0,71,0.00,,,0.00,Wunderground v.1.15,2013-01-02 13:47:00,
2013-01-02 08:52:00,23.2,15.2,29.74,SW,225,0.0,-999.0,71,0.00,,,0.00,Wunderground v.1.15,2013-01-02 13:52:00,
2013-01-02 08:57:00,23.2,15.2,29.74,SW,225,0.0,-999.0,71,0.00,,,0.00,Wunderground v.1.15,2013-01-02 13:57:00,
2013-01-02 09:02:00,23.2,15.2,29.74,SW,225,0.0,-999.0,71,0.00,,,0.00,Wunderground v.1.15,2013-01-02 14:02:00,
2013-01-02 09:07:00,23.2,15.2,29.74,SW,225,0.0,-999.0,71,0.00,,,0.00,Wunderground v.1.15,2013-01-02 14:07:00,
2013-01-02 09:12:00,23.2,15.2,29.74,SW,225,0.0,-999.0,71,0.00,,,0.00,Wunderground v.1.15,2013-01-02 14:12:00,
2013-01-02 09:17:00,24.5,15.4,29.74,SW,225,0.0,-999.0,68,0.00,,,0.00,Wunderground v.1.15,2013-01-02 14:17:00,
2013-01-02 09:22:00,24.5,15.4,29.74,SW,225,0.0,-999.0,68,0.00,,,0.00,Wunderground v.1.15,2013-01-02 14:22:00,
2013-01-02 09:27:00,24.5,15.4,29.74,SW,225,0.0,-999.0,68,0.00,,,0.00,Wunderground v.1.15,2013-01-02 14:27:00,
2013-01-02 09:32:00,24.5,15.4,29.74,SW,225,0.0,-999.0,68,0.00,,,0.00,Wunderground v.1.15,2013-01-02 14:32:00,
2013-01-02 09:37:00,24.5,15.4,29.74,SW,225,0.0,-999.0,68,0.00,,,0.00,Wunderground v.1.15,2013-01-02 14:37:00,
2013-01-02 09:42:00,24.5,15.4,29.74,SW,225,0.0,-999.0,68,0.00,,,0.00,Wunderground v.1.15,2013-01-02 14:42:00,
2013-01-02 09:47:00,25.7,16.3,29.74,West,270,2.0,-999.0,67,0.00,,,0.00,Wunderground v.1.15,2013-01-02 14:47:00,
2013-01-02 09:52:00,25.7,16.3,29.74,West,270,2.0,-999.0,67,0.00,,,0.00,Wunderground v.1.15,2013-01-02 14:52:00,
2013-01-02 09:57:00,25.7,16.3,29.74,West,270,2.0,-999.0,67,0.00,,,0.00,Wunderground v.1.15,2013-01-02 14:57:00,
2013-01-02 10:02:00,25.7,16.3,29.74,West,270,2.0,-999.0,67,0.00,,,0.00,Wunderground v.1.15,2013-01-02 15:02:00,
2013-01-02 10:07:00,25.7,16.3,29.74,West,270,2.0,-999.0,67,0.00,,,0.00,Wunderground v.1.15,2013-01-02 15:07:00,
2013-01-02 10:12:00,25.7,16.3,29.74,West,270,2.0,-999.0,67,0.00,,,0.00,Wunderground v.1.15,2013-01-02 15:12:00,
2013-01-02 10:17:00,26.9,16.7,29.74,West,270,3.0,-999.0,65,0.00,,,0.00,Wunderground v.1.15,2013-01-02 15:17:00,
2013-01-02 10:22:00,26.9,16.7,29.74,West,270,3.0,-999.0,65,0.00,,,0.00,Wunderground v.1.15,2013-01-02 15:22:00,
2013-01-02 10:27:00,26.9,16.7,29.74,West,270,3.0,-999.0,65,0.00,,,0.00,Wunderground v.1.15,2013-01-02 15:27:00,
2013-01-02 10:32:00,26.9,16.7,29.74,West,270,3.0,-999.0,65,0.00,,,0.00,Wunderground v.1.15,2013-01-02 15:32:00,
2013-01-02 10:37:00,26.9,16.7,29.74,West,270,3.0,-999.0,65,0.00,,,0.00,Wunderground v.1.15,2013-01-02 15:37:00,
2013-01-02 10:42:00,26.9,16.7,29.74,West,270,3.0,-999.0,65,0.00,,,0.00,Wunderground v.1.15,2013-01-02 15:42:00,
2013-01-02 10:47:00,28.3,17.3,29.74,West,270,2.0,-999.0,63,0.00,,,0.00,Wunderground v.1.15,2013-01-02 15:47:00,
2013-01-02 10:52:00,28.3,17.3,29.74,West,270,2.0,-999.0,63,0.00,,,0.00,Wunderground v.1.15,2013-01-02 15:52:00,
2013-01-02 10:57:00,28.3,17.3,29.74,West,270,2.0,-999.0,63,0.00,,,0.00,Wunderground v.1.15,2013-01-02 15:57:00,
2013-01-02 11:02:00,28.3,17.3,29.74,West,270,2.0,-999.0,63,0.00,,,0.00,Wunderground v.1.15,2013-01-02 16:02:00,
2013-01-02 11:07:00,28.3,17.3,29.74,West,270,2.0,-999.0,63,0.00,,,0.00,Wunderground v.1.15,2013-01-02 16:07:00,
2013-01-02 11:12:00,28.3,17.3,29.74,West,270,2.0,-999.0,63,0.00,,,0.00,Wunderground v.1.15,2013-01-02 16:12:00,
2013-01-02 11:17:00,28.7,17.3,29.74,WSW,248,4.0,-999.0,62,0.00,,,0.00,Wunderground v.1.15,2013-01-02 16:17:00,
2013-01-02 11:22:00,28.7,17.3,29.74,WSW,248,4.0,-999.0,62,0.00,,,0.00,Wunderground v.1.15,2013-01-02 16:22:00,
2013-01-02 11:27:00,28.7,17.3,29.74,WSW,248,4.0,-999.0,62,0.00,,,0.00,Wunderground v.1.15,2013-01-02 16:27:00,
2013-01-02 11:32:00,28.7,17.3,29.74,WSW,248,4.0,-999.0,62,0.00,,,0.00,Wunderground v.1.15,2013-01-02 16:32:00,
2013-01-02 11:37:00,28.7,17.3,29.74,WSW,248,4.0,-999.0,62,0.00,,,0.00,Wunderground v.1.15,2013-01-02 16:37:00,
2013-01-02 11:42:00,28.7,17.3,29.74,WSW,248,4.0,-999.0,62,0.00,,,0.00,Wunderground v.1.15,2013-01-02 16:42:00,
2013-01-02 11:47:00,29.0,17.6,29.74,WSW,248,4.0,-999.0,62,0.00,,,0.00,Wunderground v.1.15,2013-01-02 16:47:00,
2013-01-02 11:52:00,29.0,17.6,29.74,WSW,248,4.0,-999.0,62,0.00,,,0.00,Wunderground v.1.15,2013-01-02 16:52:00,
2013-01-02 11:57:00,29.0,17.6,29.74,WSW,248,4.0,-999.0,62,0.00,,,0.00,Wunderground v.1.15,2013-01-02 16:57:00,
2013-01-02 12:02:00,29.0,17.6,29.74,WSW,248,4.0,-999.0,62,0.00,,,0.00,Wunderground v.1.15,2013-01-02 17:02:00,
2013-01-02 12:07:00,29.0,17.6,29.74,WSW,248,4.0,-999.0,62,0.00,,,0.00,Wunderground v.1.15,2013-01-02 17:07:00,
2013-01-02 12:12:00,29.0,17.6,29.74,WSW,248,4.0,-999.0,62,0.00,,,0.00,Wunderground v.1.15,2013-01-02 17:12:00,
2013-01-02 12:17:00,29.3,17.9,29.74,WSW,248,5.0,-999.0,62,0.00,,,0.00,Wunderground v.1.15,2013-01-02 17:17:00,
2013-01-02 12:22:00,29.3,17.9,29.74,WSW,248,5.0,-999.0,62,0.00,,,0.00,Wunderground v.1.15,2013-01-02 17:22:00,
2013-01-02 12:27:00,29.3,17.9,29.74,WSW,248,5.0,-999.0,62,0.00,,,0.00,Wunderground v.1.15,2013-01-02 17:27:00,
2013-01-02 12:32:00,29.3,17.9,29.74,WSW,248,5.0,-999.0,62,0.00,,,0.00,Wunderground v.1.15,2013-01-02 17:32:00,
2013-01-02 12:37:00,29.3,17.9,29.74,WSW,248,5.0,-999.0,62,0.00,,,0.00,Wunderground v.1.15,2013-01-02 17:37:00,
2013-01-02 12:42:00,29.3,17.9,29.74,WSW,248,5.0,-999.0,62,0.00,,,0.00,Wunderground v.1.15,2013-01-02 17:42:00,
2013-01-02 12:47:00,30.5,18.6,29.74,WSW,248,4.0,-999.0,61,0.00,,,0.00,Wunderground v.1.15,2013-01-02 17:47:00,
2013-01-02 12:52:00,30.5,18.6,29.74,WSW,248,4.0,-999.0,61,0.00,,,0.00,Wunderground v.1.15,2013-01-02 17:52:00,
2013-01-02 12:57:00,30.5,18.6,29.74,WSW,248,4.0,-999.0,61,0.00,,,0.00,Wunderground v.1.15,2013-01-02 17:57:00,
2013-01-02 13:02:00,30.5,18.6,29.74,WSW,248,4.0,-999.0,61,0.00,,,0.00,Wunderground v.1.15,2013-01-02 18:02:00,
2013-01-02 13:07:00,30.5,18.6,29.74,WSW,248,4.0,-999.0,61,0.00,,,0.00,Wunderground v.1.15,2013-01-02 18:07:00,
2013-01-02 13:12:00,30.5,18.6,29.74,WSW,248,4.0,-999.0,61,0.00,,,0.00,Wunderground v.1.15,2013-01-02 18:12:00,
2013-01-02 13:17:00,30.9,18.2,29.74,WSW,248,4.0,-999.0,59,0.00,,,0.00,Wunderground v.1.15,2013-01-02 18:17:00,
2013-01-02 13:22:00,30.9,18.2,29.74,WSW,248,4.0,-999.0,59,0.00,,,0.00,Wunderground v.1.15,2013-01-02 18:22:00,
2013-01-02 13:27:00,30.9,18.2,29.74,WSW,248,4.0,-999.0,59,0.00,,,0.00,Wunderground v.1.15,2013-01-02 18:27:00,
2013-01-02 13:32:00,30.9,18.2,29.74,WSW,248,4.0,-999.0,59,0.00,,,0.00,Wunderground v.1.15,2013-01-02 18:32:00,
2013-01-02 13:37:00,30.9,18.2,29.74,WSW,248,4.0,-999.0,59,0.00,,,0.00,Wunderground v.1.15,2013-01-02 18:37:00,
2013-01-02 13:42:00,30.9,18.2,29.74,WSW,248,4.0,-999.0,59,0.00,,,0.00,Wunderground v.1.15,2013-01-02 18:42:00,
2013-01-02 13:47:00,32.2,19.9,29.74,West,270,2.0,-999.0,60,0.00,,,0.00,Wunderground v.1.15,2013-01-02 18:47:00,
2013-01-02 13:52:00,32.2,19.9,29.74,West,270,2.0,-999.0,60,0.00,,,0.00,Wunderground v.1.15,2013-01-02 18:52:00,
2013-01-02 13:57:00,32.2,19.9,29.74,West,270,2.0,-999.0,60,0.00,,,0.00,Wunderground v.1.15,2013-01-02 18:57:00,
2013-01-02 14:02:00,32.2,19.9,29.74,West,270,2.0,-999.0,60,0.00,,,0.00,Wunderground v.1.15,2013-01-02 19:02:00,
2013-01-02 14:07:00,32.2,19.9,29.74,West,270,2.0,-999.0,60,0.00,,,0.00,Wunderground v.1.15,2013-01-02 19:07:00,
2013-01-02 14:12:00,32.2,19.9,29.74,West,270,2.0,-999.0,60,0.00,,,0.00,Wunderground v.1.15,2013-01-02 19:12:00,
2013-01-02 14:17:00,31.3,19.0,29.74,West,270,3.0,-999.0,60,0.00,,,0.00,Wunderground v.1.15,2013-01-02 19:17:00,
2013-01-02 14:22:00,31.3,19.0,29.74,West,270,3.0,-999.0,60,0.00,,,0.00,Wunderground v.1.15,2013-01-02 19:22:00,
2013-01-02 14:27:00,31.3,19.0,29.74,West,270,3.0,-999.0,60,0.00,,,0.00,Wunderground v.1.15,2013-01-02 19:27:00,
2013-01-02 14:32:00,31.3,19.0,29.74,West,270,3.0,-999.0,60,0.00,,,0.00,Wunderground v.1.15,2013-01-02 19:32:00,
2013-01-02 14:37:00,31.3,19.0,29.74,West,270,3.0,-999.0,60,0.00,,,0.00,Wunderground v.1.15,2013-01-02 19:37:00,
2013-01-02 14:42:00,31.3,19.0,29.74,West,270,3.0,-999.0,60,0.00,,,0.00,Wunderground v.1.15,2013-01-02 19:42:00,
2013-01-02 14:47:00,31.4,18.7,29.74,WSW,248,3.0,-999.0,59,0.00,,,0.00,Wunderground v.1.15,2013-01-02 19:47:00,
2013-01-02 14:52:00,31.4,18.7,29.74,WSW,248,3.0,-999.0,59,0.00,,,0.00,Wunderground v.1.15,2013-01-02 19:52:00,
2013-01-02 14:57:00,31.4,18.7,29.74,WSW,248,3.0,-999.0,59,0.00,,,0.00,Wunderground v.1.15,2013-01-02 19:57:00,
2013-01-02 15:02:00,31.4,18.7,29.74,WSW,248,3.0,-999.0,59,0.00,,,0.00,Wunderground v.1.15,2013-01-02 20:02:00,
2013-01-02 15:07:00,31.4,18.7,29.74,WSW,248,3.0,-999.0,59,0.00,,,0.00,Wunderground v.1.15,2013-01-02 20:07:00,
2013-01-02 15:12:00,31.4,18.7,29.74,WSW,248,3.0,-999.0,59,0.00,,,0.00,Wunderground v.1.15,2013-01-02 20:12:00,
2013-01-02 15:17:00,31.6,18.1,29.74,SW,225,2.0,-999.0,57,0.00,,,0.00,Wunderground v.1.15,2013-01-02 20:17:00,
2013-01-02 15:22:00,31.6,18.1,29.74,SW,225,2.0,-999.0,57,0.00,,,0.00,Wunderground v.1.15,2013-01-02 20:22:00,
2013-01-02 15:27:00,31.6,18.1,29.74,SW,225,2.0,-999.0,57,0.00,,,0.00,Wunderground v.1.15,2013-01-02 20:27:00,
2013-01-02 15:32:00,31.6,18.1,29.74,SW,225,2.0,-999.0,57,0.00,,,0.00,Wunderground v.1.15,2013-01-02 20:32:00,
2013-01-02 15:37:00,31.6,18.1,29.74,SW,225,2.0,-999.0,57,0.00,,,0.00,Wunderground v.1.15,2013-01-02 20:37:00,
2013-01-02 15:42:00,31.6,18.1,29.74,SW,225,2.0,-999.0,57,0.00,,,0.00,Wunderground v.1.15,2013-01-02 20:42:00,
2013-01-02 15:47:00,31.7,18.2,29.74,WSW,248,1.0,-999.0,57,0.00,,,0.00,Wunderground v.1.15,2013-01-02 20:47:00,
2013-01-02 15:52:00,31.7,18.2,29.74,WSW,248,1.0,-999.0,57,0.00,,,0.00,Wunderground v.1.15,2013-01-02 20:52:00,
2013-01-02 15:57:00,31.7,18.2,29.74,WSW,248,1.0,-999.0,57,0.00,,,0.00,Wunderground v.1.15,2013-01-02 20:57:00,
2013-01-02 16:02:00,31.7,18.2,29.74,WSW,248,1.0,-999.0,57,0.00,,,0.00,Wunderground v.1.15,2013-01-02 21:02:00,
2013-01-02 16:07:00,31.7,18.2,29.74,WSW,248,1.0,-999.0,57,0.00,,,0.00,Wunderground v.1.15,2013-01-02 21:07:00,
2013-01-02 16:12:00,31.7,18.2,29.74,WSW,248,1.0,-999.0,57,0.00,,,0.00,Wunderground v.1.15,2013-01-02 21:12:00,
2013-01-02 16:17:00,30.7,18.1,29.74,WSW,248,2.0,-999.0,59,0.00,,,0.00,Wunderground v.1.15,2013-01-02 21:17:00,
2013-01-02 16:22:00,30.7,18.1,29.74,WSW,248,2.0,-999.0,59,0.00,,,0.00,Wunderground v.1.15,2013-01-02 21:22:00,
2013-01-02 16:27:00,30.7,18.1,29.74,WSW,248,2.0,-999.0,59,0.00,,,0.00,Wunderground v.1.15,2013-01-02 21:27:00,
2013-01-02 16:47:00,29.1,17.3,29.74,WSW,244,0.0,0.0,61,0.00,,,0.00,Wunderground v.1.15,2013-01-02 21:47:00,
2013-01-02 16:52:00,28.9,17.1,29.74,WSW,244,0.0,1.0,61,0.00,,,0.00,Wunderground v.1.15,2013-01-02 21:52:00,
2013-01-02 16:58:00,28.7,17.3,29.74,WSW,244,0.0,1.0,62,0.00,,,0.00,Wunderground v.1.15,2013-01-02 21:58:00,
2013-01-02 17:03:00,28.7,16.9,29.74,West,281,0.0,4.0,61,0.00,,,0.00,Wunderground v.1.15,2013-01-02 22:03:00,
2013-01-02 17:09:00,28.7,17.3,29.74,West,277,0.0,4.0,62,0.00,,,0.00,Wunderground v.1.15,2013-01-02 22:09:00,
2013-01-02 17:15:00,28.6,16.8,29.74,West,278,0.0,0.0,61,0.00,,,0.00,Wunderground v.1.15,2013-01-02 22:15:00,
2013-01-02 17:20:00,28.4,17.0,29.74,West,278,0.0,0.0,62,0.00,,,0.00,Wunderground v.1.15,2013-01-02 22:20:00,
2013-01-02 17:26:00,28.1,16.7,29.74,West,278,0.0,0.0,62,0.00,,,0.00,Wunderground v.1.15,2013-01-02 22:26:00,
2013-01-02 17:32:00,27.9,16.9,29.74,West,277,0.0,0.0,63,0.00,,,0.00,Wunderground v.1.15,2013-01-02 22:32:00,
2013-01-02 17:37:00,27.8,16.8,29.74,West,278,0.0,0.0,63,0.00,,,0.00,Wunderground v.1.15,2013-01-02 22:37:00,
2013-01-02 17:43:00,27.5,16.5,29.74,West,278,0.0,0.0,63,0.00,,,0.00,Wunderground v.1.15,2013-01-02 22:43:00,
2013-01-02 17:48:00,27.3,16.7,29.74,West,278,0.0,0.0,64,0.00,,,0.00,Wunderground v.1.15,2013-01-02 22:48:00,
2013-01-02 17:54:00,27.2,16.6,29.74,West,278,0.0,0.0,64,0.00,,,0.00,Wunderground v.1.15,2013-01-02 22:54:00,
2013-01-02 18:00:00,27.0,16.4,29.74,West,278,0.0,0.0,64,0.00,,,0.00,Wunderground v.1.15,2013-01-02 23:00:00,
2013-01-02 18:06:00,26.8,16.6,29.74,West,278,0.0,0.0,65,0.00,,,0.00,Wunderground v.1.15,2013-01-02 23:06:00,
2013-01-02 18:12:00,26.5,16.3,29.74,West,277,0.0,0.0,65,0.00,,,0.00,Wunderground v.1.15,2013-01-02 23:12:00,
2013-01-02 18:18:00,26.3,16.5,29.74,West,277,0.0,0.0,66,0.00,,,0.00,Wunderground v.1.15,2013-01-02 23:18:00,
2013-01-02 18:24:00,26.2,16.4,29.74,West,278,0.0,0.0,66,0.00,,,0.00,Wunderground v.1.15,2013-01-02 23:24:00,
2013-01-02 18:30:00,26.0,16.5,29.74,West,277,0.0,0.0,67,0.00,,,0.00,Wunderground v.1.15,2013-01-02 23:30:00,
2013-01-02 18:35:00,26.0,16.5,29.74,West,277,0.0,0.0,67,0.00,,,0.00,Wunderground v.1.15,2013-01-02 23:35:00,
2013-01-02 18:41:00,26.2,16.4,29.74,West,277,0.0,0.0,66,0.00,,,0.00,Wunderground v.1.15,2013-01-02 23:41:00,
2013-01-02 18:47:00,26.3,16.5,29.74,West,278,0.0,2.0,66,0.00,,,0.00,Wunderground v.1.15,2013-01-02 23:47:00,
2013-01-02 18:52:00,26.4,16.6,29.74,West,278,0.0,0.0,66,0.00,,,0.00,Wunderground v.1.15,2013-01-02 23:52:00,
2013-01-02 18:57:00,26.3,16.1,29.74,West,277,0.0,0.0,65,0.00,,,0.00,Wunderground v.1.15,2013-01-02 23:57:00,
2013-01-02 19:03:00,26.2,16.4,29.74,West,278,0.0,0.0,66,0.00,,,0.00,Wunderground v.1.15,2013-01-03 00:03:00,
2013-01-02 19:09:00,25.9,16.1,29.74,West,277,0.0,0.0,66,0.00,,,0.00,Wunderground v.1.15,2013-01-03 00:09:00,
2013-01-02 19:15:00,25.6,15.8,29.74,West,278,0.0,0.0,66,0.00,,,0.00,Wunderground v.1.15,2013-01-03 00:15:00,
2013-01-02 19:20:00,25.3,15.9,29.74,West,278,0.0,0.0,67,0.00,,,0.00,Wunderground v.1.15,2013-01-03 00:20:00,
2013-01-02 19:26:00,25.1,16.0,29.74,West,277,0.0,0.0,68,0.00,,,0.00,Wunderground v.1.15,2013-01-03 00:26:00,
2013-01-02 19:31:00,24.9,15.8,29.74,West,277,0.0,0.0,68,0.00,,,0.00,Wunderground v.1.15,2013-01-03 00:31:00,
2013-01-02 19:36:00,24.7,16.0,29.74,West,278,0.0,0.0,69,0.00,,,0.00,Wunderground v.1.15,2013-01-03 00:36:00,
2013-01-02 19:42:00,24.5,15.8,29.74,West,278,0.0,0.0,69,0.00,,,0.00,Wunderground v.1.15,2013-01-03 00:42:00,
2013-01-02 19:47:00,24.4,15.7,29.74,West,277,0.0,0.0,69,0.00,,,0.00,Wunderground v.1.15,2013-01-03 00:47:00,
2013-01-02 19:53:00,24.3,15.6,29.74,West,277,0.0,0.0,69,0.00,,,0.00,Wunderground v.1.15,2013-01-03 00:53:00,
2013-01-02 19:59:00,24.0,15.3,29.74,West,277,0.0,0.0,69,0.00,,,0.00,Wunderground v.1.15,2013-01-03 00:59:00,
2013-01-02 20:04:00,23.9,15.5,29.74,West,277,0.0,0.0,70,0.00,,,0.00,Wunderground v.1.15,2013-01-03 01:04:00,
2013-01-02 20:10:00,23.9,15.5,29.74,West,277,0.0,0.0,70,0.00,,,0.00,Wunderground v.1.15,2013-01-03 01:10:00,
2013-01-02 20:16:00,24.7,16.0,29.74,West,277,0.0,1.0,69,0.00,,,0.00,Wunderground v.1.15,2013-01-03 01:16:00,
2013-01-02 20:21:00,25.0,15.9,29.74,West,278,0.0,0.0,68,0.00,,,0.00,Wunderground v.1.15,2013-01-03 01:21:00,
2013-01-02 20:27:00,25.1,16.0,29.74,West,277,0.0,0.0,68,0.00,,,0.00,Wunderground v.1.15,2013-01-03 01:27:00,
2013-01-02 20:33:00,24.9,15.8,29.74,West,277,0.0,0.0,68,0.00,,,0.00,Wunderground v.1.15,2013-01-03 01:33:00,
2013-01-02 20:39:00,24.8,15.7,29.74,West,278,0.0,0.0,68,0.00,,,0.00,Wunderground v.1.15,2013-01-03 01:39:00,
2013-01-02 20:44:00,24.8,15.7,29.74,West,278,0.0,0.0,68,0.00,,,0.00,Wunderground v.1.15,2013-01-03 01:44:00,
2013-01-02 20:50:00,24.8,15.7,29.74,West,277,0.0,0.0,68,0.00,,,0.00,Wunderground v.1.15,2013-01-03 01:50:00,
2013-01-02 20:56:00,24.9,15.8,29.74,West,277,0.0,0.0,68,0.00,,,0.00,Wunderground v.1.15,2013-01-03 01:56:00,
2013-01-02 21:01:00,25.0,15.9,29.74,West,278,0.0,0.0,68,0.00,,,0.00,Wunderground v.1.15,2013-01-03 02:01:00,
2013-01-02 21:06:00,25.1,16.0,29.74,West,278,0.0,0.0,68,0.00,,,0.00,Wunderground v.1.15,2013-01-03 02:06:00,
2013-01-02 21:11:00,25.2,16.1,29.74,West,277,0.0,0.0,68,0.00,,,0.00,Wunderground v.1.15,2013-01-03 02:11:00,
2013-01-02 21:17:00,25.3,15.9,29.74,West,277,0.0,0.0,67,0.00,,,0.00,Wunderground v.1.15,2013-01-03 02:17:00,
2013-01-02 21:22:00,25.3,15.9,29.74,West,278,0.0,1.0,67,0.00,,,0.00,Wunderground v.1.15,2013-01-03 02:22:00,
2013-01-02 21:28:00,25.2,16.1,29.74,West,277,0.0,1.0,68,0.00,,,0.00,Wunderground v.1.15,2013-01-03 02:28:00,
2013-01-02 21:33:00,25.1,16.0,29.74,West,277,0.0,0.0,68,0.00,,,0.00,Wunderground v.1.15,2013-01-03 02:33:00,
2013-01-02 21:39:00,25.1,16.0,29.74,West,277,0.0,0.0,68,0.00,,,0.00,Wunderground v.1.15,2013-01-03 02:39:00,
2013-01-02 21:45:00,25.3,15.9,29.74,West,277,0.0,1.0,67,0.00,,,0.00,Wunderground v.1.15,2013-01-03 02:45:00,
2013-01-02 21:50:00,25.4,16.0,29.74,West,277,0.0,0.0,67,0.00,,,0.00,Wunderground v.1.15,2013-01-03 02:50:00,
2013-01-02 21:56:00,25.4,16.0,29.74,West,277,0.0,0.0,67,0.00,,,0.00,Wunderground v.1.15,2013-01-03 02:56:00,
2013-01-02 22:02:00,25.3,15.9,29.74,West,277,0.0,0.0,67,0.00,,,0.00,Wunderground v.1.15,2013-01-03 03:02:00,
2013-01-02 22:07:00,25.1,16.0,29.74,West,277,0.0,0.0,68,0.00,,,0.00,Wunderground v.1.15,2013-01-03 03:07:00,
2013-01-02 22:13:00,25.1,16.0,29.74,West,277,0.0,0.0,68,0.00,,,0.00,Wunderground v.1.15,2013-01-03 03:13:00,
2013-01-02 22:18:00,25.1,16.0,29.74,West,277,0.0,0.0,68,0.00,,,0.00,Wunderground v.1.15,2013-01-03 03:18:00,
2013-01-02 22:24:00,24.9,15.8,29.74,West,277,0.0,0.0,68,0.00,,,0.00,Wunderground v.1.15,2013-01-03 03:24:00,
2013-01-02 22:29:00,24.9,15.8,29.74,West,277,0.0,0.0,68,0.00,,,0.00,Wunderground v.1.15,2013-01-03 03:29:00,
2013-01-02 22:37:00,24.9,15.8,29.74,West,277,0.0,0.0,68,0.00,,,0.00,Wunderground v.1.15,2013-01-03 03:37:00,
2013-01-02 22:42:00,24.9,16.2,29.74,West,277,0.0,0.0,69,0.00,,,0.00,Wunderground v.1.15,2013-01-03 03:42:00,
2013-01-02 22:48:00,24.9,16.2,29.74,West,277,0.0,2.0,69,0.00,,,0.00,Wunderground v.1.15,2013-01-03 03:48:00,
2013-01-02 22:54:00,24.9,16.2,29.74,West,277,0.0,0.0,69,0.00,,,0.00,Wunderground v.1.15,2013-01-03 03:54:00,
2013-01-02 23:00:00,24.9,16.2,29.74,West,277,0.0,0.0,69,0.00,,,0.00,Wunderground v.1.15,2013-01-03 04:00:00,
2013-01-02 23:06:00,24.8,16.1,29.74,West,277,0.0,0.0,69,0.00,,,0.00,Wunderground v.1.15,2013-01-03 04:06:00,
2013-01-02 23:11:00,24.7,16.0,29.74,West,277,0.0,0.0,69,0.00,,,0.00,Wunderground v.1.15,2013-01-03 04:11:00,
2013-01-02 23:17:00,24.6,15.9,29.74,West,277,0.0,0.0,69,0.00,,,0.00,Wunderground v.1.15,2013-01-03 04:17:00,
2013-01-02 23:22:00,24.4,16.3,29.74,West,277,0.0,0.0,71,0.00,,,0.00,Wunderground v.1.15,2013-01-03 04:22:00,
2013-01-02 23:28:00,24.3,15.9,29.74,West,277,0.0,0.0,70,0.00,,,0.00,Wunderground v.1.15,2013-01-03 04:28:00,
2013-01-02 23:33:00,24.4,16.0,29.74,West,277,0.0,0.0,70,0.00,,,0.00,Wunderground v.1.15,2013-01-03 04:33:00,
2013-01-02 23:39:00,24.4,16.0,29.74,West,277,0.0,0.0,70,0.00,,,0.00,Wunderground v.1.15,2013-01-03 04:39:00,
2013-01-02 23:44:00,24.5,16.1,29.74,West,277,0.0,0.0,70,0.00,,,0.00,Wunderground v.1.15,2013-01-03 04:44:00,
2013-01-02 23:50:00,24.7,16.3,29.74,West,271,0.0,1.0,70,0.00,,,0.00,Wunderground v.1.15,2013-01-03 04:50:00,
2013-01-02 23:55:00,25.0,16.3,29.74,West,272,1.0,5.0,69,0.00,,,0.00,Wunderground v.1.15,2013-01-03 04:55:00,